NOAA 16 DEB, 41063

Orbit data source: Space-Track

NOAA 16 DEB, 41063 is space debris in SSO originally from a launch on Thu, 21 Sep 2000 UTC launched from the Air Force Western Test Range (AFWTR). Debris objects in space refer to the collection of defunct objects orbiting the Earth. Examples of debris include non-operational satellites, rocket bodies, and fragments generated from explosions, collisions, or faulty payload assembly.

Loading next visibility...
Identifier
41063, 2000-055W
Orbit
SSO
Country
Flag of USUS
Related business
Manufacturer
Unknown
Mission
Spacecraft
Bus & Motor
Unknown
Mass
Unknown
Launch date (UTC)
2000-09-21 (25 years ago)
Launch vehicle
Unknown
Launch site
Air Force Western Test Range (AFWTR)
Object type
Payload
Rocket body
Debris
Shape & HBR
Unknown shape, 0.1 m
Radar Cross Section
Small (<0.1 m²)

Expand to show TLE details & history
Last TLE update: 11 hours ago

TLE from 11 hours ago
0 NOAA 16 DEB
1 41063U 00055W   25355.20913391  .00002411  00000-0  10666-2 0  9991
2 41063  98.7585  72.3993 0021739 223.5467 136.3996 14.24001096519539
Epoch: 2025-12-21T05:01Z
TLE epoch observation values (Epoch: 2025-12-21T05:01:09.169Z)
Latitude
-0.00003°
Longitude
-92.91377°
Altitude
826.109 km
Speed
7.434 km/s
True Right ascension
04h 49m 35s
True Declination
0° 00' 00"
Sunlit
Object was in full shadow at epoch
Visualization orbit readout
Latitude
Unknown
Longitude
Unknown
Altitude
Unknown
Speed
Unknown
Apparent Right ascension
Unknown
Apparent Declination
Unknown
Sunlit
N/A
Visualization observer readout
Local Sidereal Time
14:42:27
Azimuth
Unknown
Elevation
Unknown
Doppler factor
Unknown
Orbital elements
Apogee altitude
824.633 km
Perigee altitude
793.385 km
Semi-major axis
7,187.146 km
Eccentricity
0.00217
Inclination
98.7585°
RAAN
72.3993°
Arg. of periapsis
223.5467°
True anomaly
136.57106°
Mean anomaly
136.3996°
Eccentric anomaly
136.48536°
Mean motion
3.56212 °/min
Orbital period
101.06 mins
BSTAR
0.0010666
Loading maneuver chart data...
Computing Atmospheric mass density...
Loading historical data...
Loading historical data...
Loading historical data...
Loading historical data...
Loading historical data...
Loading historical data...
Loading historical data...

Documentation

Showing up to 5 results
|